Back to Previous

Regional Weather Roundup

699 
ASUS44 KLZK 021605
RWRLZK

WEATHER ROUNDUP FOR ARKANSAS
NATIONAL WEATHER SERVICE LITTLE ROCK AR
1000 AM CST MON MAR 02 2015

NOTE: "FAIR" INDICATES FEW OR NO CLOUDS BELOW 12,000 FEET WITH NO
SIGNIFICANT WEATHER AND/OR OBSTRUCTIONS TO VISIBILITY.

ARZ001-003-010-029-021700-
NORTHWEST ARKANSAS
  
CITY           SKY/WX    TMP DP  RH WIND       PRES   REMARKS
FAYETTEVILLE   CLOUDY    31  24  75 E8        30.41F WCI  23          
FORT SMITH     CLOUDY    37  31  78 E15       30.43F                  
HARRISON       CLOUDY    30  22  72 SE12      30.44S WCI  20          
BENTONVILLE    CLOUDY    32  19  59 E12       30.42S WCI  23          
ROGERS         CLOUDY    31  22  69 E13       30.41F WCI  21          
SILOAM SPGS    CLOUDY    32  19  59 MISG      30.42S                  
HIGHFILL       CLOUDY    32  21  64 E9        30.41R WCI  24          
SPRINGDALE     CLOUDY    32  21  64 E13G24    30.43R WCI  22          
$$

ARZ004-005-016-021700-
NORTH CENTRAL ARKANSAS
  
CITY           SKY/WX    TMP DP  RH WIND       PRES   REMARKS
BATESVILLE     CLOUDY    36  21  55 E16       30.48F                  
FLIPPIN        CLOUDY    34  19  55 E7        30.47F WCI  28          
MTN HOME       CLOUDY    32  22  66 E7        30.46F WCI  26          
$$

ARZ040-041-021700-
WEST CENTRAL ARKANSAS
  
CITY           SKY/WX    TMP DP  RH WIND       PRES   REMARKS
MENA           NOT AVBL                                               
MOUNT IDA      CLOUDY    35  33  92 CALM      30.39S FOG              
$$

ARZ009-017-025-026-028-021700-
NORTHEAST ARKANSAS
  
CITY           SKY/WX    TMP DP  RH WIND       PRES   REMARKS
JONESBORO      CLOUDY    32  24  72 NE16      30.50R WCI  21          
NEWPORT        CLOUDY    34  24  67 NE18      30.51S WCI  23          
WALNUT RIDGE   CLOUDY    34  21  60 NE14      30.52R WCI  24          
BLYTHEVILLE    CLOUDY    34  25  69 NE17      30.49F WCI  23          
NW BLYTHEVILLE CLOUDY    34  23  64 NE14      30.50F WCI  24          
$$

ARZ022-023-033-042-044-021700-
CENTRAL ARKANSAS
  
CITY           SKY/WX    TMP DP  RH WIND       PRES   REMARKS
LITTLE ROCK    CLOUDY    35  26  69 NE14      30.48F WCI  26          
N LITTLE ROCK  CLOUDY    34  29  82 NE12      30.48F WCI  25          
JACKSONVILLE   CLOUDY    35  26  70 NE6       30.48R WCI  29          
SEARCY         CLOUDY    35  25  66 NE17G23   30.49F WCI  25          
HOT SPRINGS    CLOUDY    34  31  88 E12       30.44S WCI  25          
RUSSELLVILLE   CLOUDY    36  28  73 NE12G17   30.46S                  
$$

ARZ036-021700-
EAST ARKANSAS
  
CITY           SKY/WX    TMP DP  RH WIND       PRES   REMARKS
WEST MEMPHIS   CLOUDY    36  29  75 NE13      30.45F                  
$$

ARZ050-053-066-070-073-021700-
SOUTHWEST ARKANSAS
  
CITY           SKY/WX    TMP DP  RH WIND       PRES   REMARKS
ARKADELPHIA    CLOUDY    37  35  92 NE9       30.46S                  
TEXARKANA      LGT RAIN  38  37  97 NE9       30.40S FOG              
EL DORADO      CLOUDY    38  36  92 NE10      30.41S FOG              
DE QUEEN       CLOUDY    40  36  86 E8        30.41R                  
$$

ARZ056-057-069-021700-
SOUTHEAST ARKANSAS
  
CITY           SKY/WX    TMP DP  RH WIND       PRES   REMARKS
PINE BLUFF     LGT RAIN  34  30  85 NE16G23   30.47R FOG     WCI  24  
STUTTGART      CLOUDY    36  28  75 NE12      30.47F                  
MONTICELLO     CLOUDY    35  33  92 N9        30.44R FOG     WCI  28  

$$




USA.gov is the U.S. government's official web portal to all federal, state and local government web resources and services.